Regional Weather Roundup
Issued by NWS

Home | Current Version | Previous Version | Text Only | Print | Product List | Glossary On
Versions: 1 2 3 4 5 6 7 8 9 10 11 12 13 14 15 16 17 18 19 20 21 22 23 24 25 26 27 28 29 30 31 32 33 34 35 36 37 38 39 40 41 42 43 44 45 46 47 48 49 50
000
ASUS44 KJAN 291910
RWRMS

MISSISSIPPI HOURLY WEATHER ROUNDUP
NATIONAL WEATHER SERVICE JACKSON MS
200 PM CDT MON MAY 29 2017

NOTE: "FAIR: INDICATES FEW OR NO CLOUDS BELOW 12,000 FEET WITH NO
SIGNIFICANT WEATHER AND/OR OBSTRUCTIONS TO VISIBILITY.

MSZ001>002-007>008-010>013-018>021-025>028-034>036-292000-
NORTHWEST MISSISSIPPI

CITY           SKY/WX    TMP DP  RH WIND       PRES   REMARKS
BATESVILLE     MOCLDY    76  68  76 CALM      30.03S
CLARKSDALE       N/A     79  75  89 MISG      30.01F
CLEVELAND      FAIR      76  72  86 SW12      30.02F
GREENWOOD      CLOUDY    79  68  69 SW12      30.01F
GREENVILLE     CLOUDY   N/A N/A N/A MISG      30.02F
OLIVE BRANCH   PTSUNNY  N/A N/A N/A VRB5      30.00F
OXFORD         FAIR      75  64  69 SW7       30.04S
TUNICA         PTCLDY    81  63  54 CALM      30.01F
WINONA         MOCLDY    77  66  69 SW8       30.02F
$$

MSZ003>006-009-014>017-022>024-029>033-037>039-292000-
NORTHEAST MISSISSIPPI

CITY           SKY/WX    TMP DP  RH WIND       PRES   REMARKS
COLUMBUS AFB   CLOUDY    81  70  69 NW12      30.00F
CORINTH        DRIZZLE   72  66  83 VRB7G15   30.02R
STARKVILLE     FAIR      79  64  61 W3        30.04F
TUPELO         CLOUDY    79  65  62 S6        30.01F
$$

MSZ040-058-292000-
CENTRAL MISSISSIPPI

CITY           SKY/WX    TMP DP  RH WIND       PRES   REMARKS
JACKSON INTL   CLOUDY    77  65  66 N6        30.00F
JACKSON HAWKNS CLOUDY    80  65  59 VRB5      30.01F
MADISON        FAIR      77  66  69 CALM      30.00F
MERIDIAN KEY   PTSUNNY   84  68  58 VRB6      30.00F
MERIDIAN NAS   CLOUDY    83  64  52 N6        30.01F
VICKSBURG VKS  CLEAR     79  66  65 VRB5      29.98S
$$

MSZ059>079-292000-
SOUTH MISSISSIPPI

CITY           SKY/WX    TMP DP  RH WIND       PRES   REMARKS
COLUMBIA       FAIR      79  68  69 SW6       30.06S
HATTIESBURG    CLOUDY    82  68  62 S8        30.02F
LAUREL         MOCLDY    80  67  63 NW5       30.02S
MCCOMB         CLOUDY    77  67  71 VRB3      30.03F
NATCHEZ        CLOUDY    75  68  78 SW6       30.03S
PINE BELT      CLOUDY    77  66  69 S6        30.05S
$$

MSZ080>082-292000-
COASTAL MISSISSIPPI

CITY           SKY/WX    TMP DP  RH WIND       PRES   REMARKS
BAY ST LOUIS   MOSUNNY   82  70  65 SW5       30.02F
BILOXI         MOSUNNY   82  71  68 S6        30.01F
PASCAGOULA     MOSUNNY   85  66  53 VRB6      30.02F
GULFPORT       MOSUNNY   84  71  65 S6        30.00F
$$

LAZ007>009-015>016-023>026-292000-
NORTHEAST LOUISIANA

CITY           SKY/WX    TMP DP  RH WIND       PRES   REMARKS
BASTROP        FAIR      82  68  63 NW6       30.02F
TALLULAH/VBURG CLOUDY    79  68  69 E6        30.00F
VIDALIA        FAIR      74  68  83 S3        30.01F
$$



USA.gov is the U.S. government's official web portal to all federal, state and local government web resources and services.